[[{"header":{"parameterUnit":"m.s-1","parameterCategory":1,"la1":30.2991,"la2":30.254,"lo1":-89.0895,"lo2":-89.0444,"dy":0.0017,"dx":0.0017,"nx":28,"ny":28,"refTime":"2025-04-29T09:00:00:Z","depth":0,"parameterNumber":2,"parameterNumberName":"U-component_of_WINDS"},"data":[0,0,0,0,0,0,0,0,0,0,0,0,0,0,0,0,0,0,0,0,0,0,0,0,0,0,0,0,0,0,0,0,0,0,0,0,0,0,0,0,0,0,0,0,0,0,0,0,0,0,0,0,0,0,0,0,0,0,-2.0895,-2.0896,0,-2.0937,-2.0938,-2.0938,-2.0933,-2.0932,-2.0931,-2.0931,-2.0971,-2.0973,-2.0975,0,0,0,0,0,0,0,0,0,0,0,0,0,-2.0809,-2.081,-2.0895,-2.0896,-2.0896,-2.0937,-2.0938,-2.0938,-2.0933,-2.0932,-2.0931,-2.093,-2.0971,-2.0973,-2.0975,0,0,0,0,0,0,0,0,0,0,0,0,0,-2.0848,-2.0811,-2.0895,-2.0899,-2.0899,-2.0937,-2.0938,-2.0938,-2.0933,-2.0932,-2.0931,-2.093,-2.097,-2.0973,-2.0975,-2.1011,0,0,-2.0983,-2.0984,0,0,0,0,0,0,0,0,-2.0846,-2.0851,-2.0898,-2.0898,-2.0899,-2.0929,-2.0922,-2.0963,-2.0933,-2.092,-2.0931,-2.0929,-2.0958,-2.0961,-2.0971,-2.1013,-2.1015,-2.0983,-2.0985,-2.0986,-2.0987,0,0,0,0,0,0,0,-2.0843,-2.0849,-2.0912,-2.0898,-2.0899,-2.0897,-2.0902,-2.093,-2.0944,-2.0921,-2.0921,-2.0926,-2.0958,-2.0969,-2.0972,-2.1016,-2.0983,-2.0985,-2.0987,-2.0988,-2.1089,-2.109,0,0,0,0,0,0,-2.084,-2.0847,-2.091,-2.0913,-2.087,-2.09,-2.0905,-2.092,-2.0944,-2.0946,-2.0927,-2.0926,-2.0965,-2.0969,-2.0974,-2.1018,-2.0986,-2.0988,-2.099,-2.1088,-2.1089,-2.1091,0,0,0,0,0,0,-2.0838,-2.0845,-2.0909,-2.088,-2.0888,-2.0902,-2.092,-2.0922,-2.0932,-2.0948,-2.095,-2.0935,-2.0964,-2.097,-2.1002,-2.1019,-2.0989,-2.0992,-2.1087,-2.1088,-2.109,-2.1106,0,0,0,0,0,0,-2.0835,-2.0845,-2.0859,-2.088,-2.089,-2.0937,-2.0921,-2.0923,-2.0937,-2.0936,-2.0957,-2.0959,-2.0964,-2.0998,-2.1005,-2.1022,-2.0994,-2.1085,-2.1087,-2.1089,-2.1104,-2.1108,-2.1111,0,0,0,0,0,-2.0832,-2.0862,-2.086,-2.0868,-2.0908,-2.0938,-2.0943,-2.0949,-2.0938,-2.0953,-2.0963,-2.0958,-2.1016,-2.1002,-2.1009,-2.1027,-2.1084,-2.1087,-2.1089,-2.1102,-2.1107,-2.1111,0,0,0,0,0,0,-2.0841,-2.0864,-2.0863,-2.09,-2.0917,-2.0937,-2.0955,-2.0954,-2.0974,-2.0972,-2.0977,-2.0982,-2.1014,-2.1024,-2.1007,-2.1063,-2.1049,-2.1053,-2.1056,-2.1061,-2.1064,-2.1061,-2.0996,0,0,0,0,0,-2.0847,-2.0871,-2.089,-2.092,-2.0929,-2.0941,-2.0954,-2.0957,-2.0975,-2.0982,-2.0994,-2.1011,-2.1033,-2.1047,-2.1068,-2.1105,-2.1109,-2.1121,-2.1125,-2.1128,-2.1131,-2.1151,-2.1157,-2.1099,-2.1099,-2.1099,0,0,-2.0861,-2.0876,-2.089,-2.0922,-2.0936,-2.096,-2.0947,-2.0972,-2.099,-2.0986,-2.1017,-2.1027,-2.1046,-2.108,-2.1096,-2.1089,-2.1148,-2.1131,-2.1133,-2.1135,-2.1154,-2.116,-2.1165,-2.1101,-2.1101,-2.11,0,0,-2.0896,-2.0911,-2.0938,-2.0952,-2.0973,-2.0981,-2.0988,-2.1008,-2.1015,-2.1046,-2.1044,-2.1064,-2.1102,-2.1116,-2.1127,-2.1169,-2.1166,-2.1176,-2.1195,-2.1214,-2.1219,-2.1223,-2.1237,-2.1242,-2.1179,-2.1179,-2.1179,0,-2.091,-2.0946,-2.0952,-2.0978,-2.0992,-2.099,-2.1017,-2.1031,-2.1057,-2.1067,-2.1059,-2.1106,-2.1119,-2.1157,-2.1167,-2.1177,-2.1184,-2.1173,-2.1218,-2.1222,-2.1226,-2.124,-2.1245,-2.118,-2.118,-2.118,-2.118,0,-2.0961,-2.0986,-2.1005,-2.1032,-2.1048,-2.1075,-2.1084,-2.11,-2.1101,-2.111,-2.1142,-2.1157,-2.1181,-2.119,-2.1192,-2.1228,-2.1223,-2.1217,-2.1202,-2.1232,-2.1245,-2.1251,-2.1182,-2.1181,-2.1181,-2.1181,0,0,-2.1003,-2.1034,-2.1041,-2.1053,-2.1076,-2.1095,-2.1121,-2.1146,-2.1159,-2.1177,-2.1199,-2.1231,-2.1225,-2.1239,-2.1241,-2.1259,-2.129,-2.125,-2.125,-2.1256,-2.1331,-2.1336,-2.1342,-2.1288,-2.1289,-2.129,-2.1329,0,-2.1042,-2.1089,-2.1095,-2.1136,-2.1159,-2.1158,-2.1181,-2.1197,-2.1206,-2.1226,-2.1235,-2.1257,-2.1248,-2.1256,-2.1273,-2.1283,-2.1305,-2.128,-2.1308,-2.1309,-2.1303,-2.1349,-2.1354,-2.1391,-2.1335,-2.1335,-2.1336,0,-2.1092,-2.1113,-2.1157,-2.1177,-2.1187,-2.1208,-2.123,-2.125,-2.1268,-2.1273,-2.1289,-2.1289,-2.1316,-2.13,-2.1337,-2.1319,-2.1331,-2.1338,-2.1339,-2.1342,-2.1324,-2.1353,-2.1403,-2.1408,-2.1344,-2.1344,-2.1343,0,-2.1119,-2.1158,-2.1189,-2.1199,-2.1224,-2.1238,-2.1249,-2.1267,-2.1281,-2.13,-2.131,-2.1332,-2.1344,-2.1361,-2.1367,-2.1356,-2.1403,-2.1388,-2.1407,-2.1407,-2.1417,-2.1417,-2.147,-2.1425,-2.1425,-2.1425,-2.1425,0,-2.1161,-2.1188,-2.1201,-2.122,-2.125,-2.1257,-2.1286,-2.1296,-2.1312,-2.1333,-2.1333,-2.1352,-2.136,-2.138,-2.1385,-2.1414,-2.1419,-2.1424,-2.1425,-2.1424,-2.1423,-2.1431,-2.1429,-2.1426,-2.1426,-2.1426,-2.1426,0,-2.1195,-2.1206,-2.124,-2.126,-2.1266,-2.1287,-2.1305,-2.1323,-2.1331,-2.1357,-2.1364,-2.1376,-2.14,-2.1409,-2.1437,-2.1441,-2.1475,-2.1474,-2.1469,-2.1469,-2.1488,-2.1486,-2.1547,-2.1556,-2.1506,-2.1507,-2.1507,0,-2.1222,-2.1242,-2.1265,-2.128,-2.1291,-2.1314,-2.1329,-2.1336,-2.1351,-2.1374,-2.1389,-2.1413,-2.1433,-2.1471,-2.1482,-2.1504,-2.1503,-2.1523,-2.1507,-2.1505,-2.1503,-2.1502,-2.1504,-2.1527,-2.1527,-2.1527,-2.1528,0,-2.1267,-2.1271,-2.1292,-2.1316,-2.1334,-2.1352,-2.137,-2.1382,-2.1391,-2.1408,-2.1433,-2.1448,-2.1478,-2.1502,-2.1524,-2.1534,-2.1533,-2.1533,-2.1539,-2.1538,-2.1534,-2.1536,-2.1477,-2.1532,-2.1531,-2.1531,-2.1531,-2.1531,-2.1298,-2.1316,-2.1336,-2.136,-2.1374,-2.1391,-2.1409,-2.142,-2.1441,-2.1466,-2.1469,-2.1495,-2.1513,-2.1543,-2.1554,-2.1575,-2.1569,-2.1577,-2.1579,-2.1581,-2.1583,-2.1531,-2.1579,-2.1579,-2.1579,-2.1579,-2.1579,0,-2.1343,-2.1356,-2.1378,-2.1403,-2.1422,-2.1419,-2.1439,-2.1455,-2.1478,-2.1495,-2.1514,-2.1543,-2.1566,-2.1579,-2.1602,-2.1615,-2.1615,-2.1621,-2.162,-2.1622,-2.1586,-2.1579,-2.1621,-2.1621,-2.1621,-2.1621,-2.1621,-2.1621,-2.1369,-2.14,-2.1406,-2.1444,-2.1456,-2.1483,-2.1494,-2.1509,-2.1523,-2.1555,-2.1574,-2.1583,-2.1598,-2.1622,-2.1643,-2.1646,-2.1654,-2.1661,-2.1663,-2.1629,-2.1625,-2.1621,-2.1614,-2.1662,-2.1662,-2.1697,-2.1698,-2.1698]},{"header":{"parameterUnit":"m.s-1","parameterCategory":1,"la1":30.2991,"la2":30.254,"lo1":-89.0895,"lo2":-89.0444,"dy":0.0017,"dx":0.0017,"nx":28,"ny":28,"refTime":"2025-04-29T09:00:00:Z","depth":0,"parameterNumber":3,"parameterNumberName":"V-component_of_WINDS"},"data":[0,0,0,0,0,0,0,0,0,0,0,0,0,0,0,0,0,0,0,0,0,0,0,0,0,0,0,0,0,0,0,0,0,0,0,0,0,0,0,0,0,0,0,0,0,0,0,0,0,0,0,0,0,0,0,0,0,0,4.3355,4.3355,0,4.3323,4.3323,4.3323,4.3217,4.3215,4.3212,4.321,4.3179,4.318,4.3182,0,0,0,0,0,0,0,0,0,0,0,0,0,4.3325,4.3326,4.3355,4.3355,4.3354,4.3324,4.3323,4.3323,4.3217,4.3214,4.3212,4.3209,4.3179,4.318,4.3182,0,0,0,0,0,0,0,0,0,0,0,0,0,4.332,4.3327,4.3355,4.3298,4.3293,4.3324,4.3323,4.3323,4.3218,4.3214,4.3211,4.3208,4.3178,4.318,4.3182,4.3266,0,0,4.3188,4.3189,0,0,0,0,0,0,0,0,4.3321,4.3322,4.3307,4.3302,4.3296,4.327,4.3301,4.3304,4.3219,4.3246,4.321,4.3206,4.3212,4.3211,4.3213,4.3265,4.3263,4.3189,4.319,4.3191,4.3191,0,0,0,0,0,0,0,4.3321,4.3322,4.3343,4.3307,4.33,4.3274,4.327,4.3301,4.325,4.3244,4.3236,4.3234,4.3209,4.3212,4.3212,4.3263,4.3189,4.319,4.3192,4.3193,4.3379,4.3383,0,0,0,0,0,0,4.333,4.3323,4.3344,4.3342,4.33,4.3278,4.3272,4.3282,4.3249,4.3241,4.3237,4.3229,4.321,4.321,4.321,4.3304,4.3191,4.3193,4.3194,4.3376,4.338,4.3384,0,0,0,0,0,0,4.3329,4.3332,4.3345,4.333,4.333,4.3282,4.3294,4.3284,4.3286,4.3244,4.3234,4.3249,4.3207,4.3207,4.3252,4.3302,4.3194,4.3196,4.3371,4.3377,4.3382,4.3495,0,0,0,0,0,0,4.3329,4.3333,4.3364,4.3332,4.3331,4.3388,4.3297,4.3286,4.329,4.3279,4.3253,4.3245,4.3204,4.325,4.3255,4.3303,4.3197,4.3367,4.3374,4.338,4.3486,4.3504,4.3518,0,0,0,0,0,4.3328,4.3398,4.3366,4.3369,4.3369,4.3391,4.339,4.3342,4.3294,4.3325,4.3298,4.3246,4.3296,4.3255,4.326,4.3309,4.3363,4.3372,4.338,4.3479,4.35,4.3518,0,0,0,0,0,0,4.3438,4.3393,4.3357,4.3419,4.3409,4.3373,4.341,4.3366,4.337,4.336,4.33,4.3295,4.3348,4.3333,4.3289,4.3388,4.3321,4.3331,4.3395,4.3415,4.343,4.3432,4.3199,0,0,0,0,0,4.347,4.3491,4.345,4.3508,4.3505,4.3459,4.3467,4.343,4.3418,4.3413,4.3389,4.338,4.3393,4.3404,4.3414,4.3485,4.3476,4.3521,4.3537,4.355,4.3558,4.3593,4.3611,4.3412,4.3412,4.3411,0,0,4.3535,4.3513,4.353,4.353,4.3518,4.3541,4.3456,4.3484,4.35,4.3418,4.3458,4.344,4.3426,4.3484,4.3508,4.3473,4.3612,4.3561,4.3572,4.3573,4.3603,4.3622,4.3639,4.3417,4.3416,4.3415,0,0,4.3665,4.3651,4.3696,4.3686,4.3669,4.3638,4.3649,4.3619,4.3604,4.3643,4.3581,4.36,4.3625,4.3617,4.3616,4.3742,4.3693,4.3747,4.3829,4.3863,4.3879,4.3893,4.3935,4.3952,4.3756,4.3756,4.3757,0,4.3748,4.3779,4.3726,4.3757,4.3758,4.3684,4.3729,4.3723,4.3711,4.3713,4.3675,4.3703,4.3689,4.3742,4.3773,4.3775,4.3785,4.3749,4.3881,4.3894,4.3906,4.3946,4.3963,4.3763,4.3762,4.3761,4.3761,0,4.3881,4.3903,4.3942,4.3931,4.3937,4.3976,4.3928,4.3941,4.3904,4.3876,4.3917,4.3897,4.39,4.3911,4.3876,4.396,4.3938,4.3892,4.3823,4.3932,4.3969,4.3984,4.3772,4.377,4.3768,4.3766,0,0,4.4078,4.4036,4.4051,4.4044,4.402,4.4036,4.4072,4.4074,4.4085,4.408,4.4107,4.4129,4.4085,4.4085,4.4048,4.4078,4.4177,4.4027,4.4026,4.4054,4.4265,4.4299,4.4317,4.4145,4.4148,4.415,4.4265,0,4.4199,4.4255,4.4208,4.4272,4.4292,4.4222,4.4252,4.424,4.4216,4.4229,4.4203,4.4218,4.4161,4.4159,4.4186,4.4159,4.4218,4.415,4.4168,4.417,4.4172,4.4337,4.4372,4.4482,4.428,4.4282,4.4284,0,4.4347,4.4346,4.4413,4.4382,4.4389,4.4417,4.4415,4.4429,4.4414,4.4394,4.4393,4.4348,4.4379,4.4314,4.4356,4.4311,4.4316,4.4304,4.4307,4.4305,4.4232,4.4337,4.4516,4.4532,4.4306,4.4304,4.4303,0,4.4481,4.4497,4.4538,4.4535,4.4502,4.4522,4.451,4.4491,4.4496,4.4495,4.4497,4.45,4.4502,4.4505,4.4462,4.4418,4.4509,4.444,4.4492,4.4493,4.4513,4.4512,4.4693,4.452,4.452,4.452,4.4519,0,4.4619,4.4662,4.4598,4.4623,4.4669,4.4615,4.4661,4.4641,4.4626,4.4645,4.4586,4.4606,4.4549,4.4563,4.453,4.4568,4.457,4.4554,4.4545,4.4558,4.456,4.4559,4.4549,4.4524,4.4523,4.4522,4.4522,0,4.4776,4.4735,4.4774,4.4739,4.4731,4.4766,4.4736,4.4758,4.473,4.4756,4.4759,4.4715,4.4728,4.4685,4.4692,4.467,4.4726,4.4705,4.4731,4.4723,4.4777,4.4772,4.4962,4.4984,4.48,4.4802,4.4803,0,4.4866,4.4897,4.4865,4.4873,4.4863,4.4878,4.4882,4.483,4.4836,4.4821,4.4845,4.4853,4.4856,4.4881,4.485,4.4854,4.4831,4.4898,4.4832,4.4844,4.483,4.4827,4.4829,4.4911,4.4913,4.4915,4.4917,0,4.5029,4.5007,4.5014,4.5014,4.502,4.5018,4.5011,4.5022,4.4966,4.4976,4.4988,4.4991,4.4998,4.5006,4.5004,4.4991,4.4944,4.4938,4.495,4.4963,4.4976,4.4967,4.4765,4.4933,4.4932,4.4931,4.493,4.4929,4.5153,4.5177,4.5157,4.5167,4.5156,4.5152,4.5169,4.5143,4.5152,4.5152,4.5122,4.514,4.5123,4.5115,4.5107,4.512,4.509,4.5108,4.5112,4.5116,4.5124,4.4976,4.512,4.512,4.5119,4.5119,4.5118,0,4.5311,4.5295,4.5304,4.5297,4.5304,4.526,4.525,4.5259,4.5276,4.5264,4.5268,4.5282,4.529,4.5259,4.5263,4.5279,4.5258,4.5282,4.5279,4.5276,4.5153,4.5141,4.5298,4.5298,4.5298,4.5298,4.5298,4.5298,4.5394,4.5431,4.5406,4.5437,4.542,4.5437,4.5435,4.543,4.542,4.5437,4.5443,4.5423,4.5403,4.5405,4.541,4.54,4.5403,4.5434,4.5418,4.5303,4.5285,4.5268,4.5257,4.5436,4.5436,4.5539,4.554,4.5541]}]]